TimeCST,TemperatureF,Dew PointF,Humidity,Sea Level PressureIn,VisibilityMPH,Wind Direction,Wind SpeedMPH,Gust SpeedMPH,PrecipitationIn,Events,Conditions,WindDirDegrees,DateUTC
12:15 AM,14.7,8.6,77,30.27,5.0,NE,6.9,-,N/A,Snow,Light Snow,40,2013-12-14 06:15:00
12:35 AM,14.4,8.6,78,30.26,10.0,NE,6.9,-,N/A,,Overcast,40,2013-12-14 06:35:00
12:55 AM,14.4,8.6,78,30.26,10.0,NNE,5.8,-,N/A,,Overcast,30,2013-12-14 06:55:00
1:15 AM,14.4,8.6,78,30.26,7.0,NNE,8.1,-,N/A,,Overcast,30,2013-12-14 07:15:00
1:35 AM,14.4,8.6,78,30.25,7.0,NNE,8.1,-,N/A,,Overcast,30,2013-12-14 07:35:00
1:55 AM,14.4,8.6,78,30.25,5.0,NE,8.1,-,N/A,,Haze,40,2013-12-14 07:55:00
2:15 AM,14.2,8.8,79,30.25,4.0,NE,8.1,-,N/A,,Haze,40,2013-12-14 08:15:00
2:35 AM,14.0,8.8,80,30.25,4.0,NNE,5.8,-,N/A,,Haze,30,2013-12-14 08:35:00
2:55 AM,14.2,9.1,80,30.24,4.0,NNE,6.9,-,N/A,Snow,Light Snow,30,2013-12-14 08:55:00
3:15 AM,14.4,9.1,80,30.23,5.0,NNE,9.2,-,N/A,Snow,Light Snow,30,2013-12-14 09:15:00
3:35 AM,14.5,9.1,79,30.23,5.0,North,8.1,-,N/A,Snow,Light Snow,10,2013-12-14 09:35:00
3:55 AM,14.4,9.1,80,30.22,5.0,NE,8.1,16.1,N/A,Snow,Light Snow,40,2013-12-14 09:55:00
4:15 AM,14.4,9.0,79,30.21,5.0,NNE,6.9,-,N/A,Snow,Light Snow,30,2013-12-14 10:15:00
4:35 AM,14.4,9.1,80,30.21,5.0,NNE,8.1,-,N/A,Snow,Light Snow,30,2013-12-14 10:35:00
4:55 AM,14.4,9.1,80,30.21,5.0,NNE,8.1,-,N/A,Snow,Light Snow,20,2013-12-14 10:55:00
5:15 AM,14.4,9.3,80,30.20,3.0,North,5.8,-,N/A,Snow,Light Snow,10,2013-12-14 11:15:00
5:35 AM,14.4,9.3,80,30.20,4.0,NNE,8.1,-,N/A,Snow,Light Snow,20,2013-12-14 11:35:00
5:55 AM,14.4,9.5,81,30.21,3.0,NNE,4.6,-,N/A,Snow,Light Snow,30,2013-12-14 11:55:00
6:15 AM,14.4,9.3,80,30.21,5.0,NNE,9.2,-,N/A,Snow,Light Snow,30,2013-12-14 12:15:00
6:35 AM,14.4,9.5,81,30.21,5.0,NNE,6.9,-,N/A,Snow,Light Snow,20,2013-12-14 12:35:00
6:55 AM,14.5,9.5,80,30.19,5.0,NNE,6.9,-,N/A,Snow,Light Snow,30,2013-12-14 12:55:00
7:15 AM,14.7,9.9,81,30.19,10.0,NNE,5.8,-,N/A,,Scattered Clouds,20,2013-12-14 13:15:00
7:35 AM,14.9,10.0,81,30.18,10.0,NNE,5.8,-,N/A,,Clear,30,2013-12-14 13:35:00
7:55 AM,15.4,10.4,80,30.18,10.0,NNE,8.1,-,N/A,,Scattered Clouds,20,2013-12-14 13:55:00
8:15 AM,16.2,11.1,81,30.18,10.0,NNE,8.1,-,N/A,,Scattered Clouds,30,2013-12-14 14:15:00
8:35 AM,16.5,11.3,80,30.18,4.0,NNE,8.1,-,N/A,Snow,Light Snow,20,2013-12-14 14:35:00
8:55 AM,17.1,11.7,79,30.19,5.0,NNE,6.9,-,N/A,Snow,Light Snow,20,2013-12-14 14:55:00
9:15 AM,17.4,11.8,79,30.18,5.0,NNE,8.1,-,N/A,,Haze,20,2013-12-14 15:15:00
9:35 AM,17.6,12.0,79,30.18,7.0,NNE,8.1,-,N/A,,Scattered Clouds,30,2013-12-14 15:35:00
9:55 AM,18.1,12.0,77,30.17,7.0,NNE,8.1,-,N/A,,Mostly Cloudy,20,2013-12-14 15:55:00
10:15 AM,18.5,12.6,78,30.16,3.0,NNE,6.9,-,N/A,Snow,Light Snow,20,2013-12-14 16:15:00
10:35 AM,18.9,12.7,77,30.15,3.0,NNE,9.2,-,N/A,Snow,Light Snow,20,2013-12-14 16:35:00
10:55 AM,19.0,12.9,77,30.14,3.0,NNE,6.9,10.4,N/A,Snow,Light Snow,20,2013-12-14 16:55:00
11:15 AM,19.4,13.1,76,30.13,3.0,NNE,8.1,-,N/A,Snow,Light Snow,30,2013-12-14 17:15:00
11:35 AM,19.8,13.6,77,30.11,3.0,NNE,8.1,-,N/A,Snow,Light Snow,20,2013-12-14 17:35:00
11:55 AM,19.8,13.6,77,30.10,3.0,NNE,9.2,-,N/A,,Haze,30,2013-12-14 17:55:00
12:15 PM,19.8,13.3,76,30.09,4.0,North,5.8,-,N/A,,Haze,10,2013-12-14 18:15:00
12:35 PM,20.1,13.5,75,30.08,5.0,North,6.9,-,N/A,,Haze,360,2013-12-14 18:35:00
12:55 PM,20.1,13.6,76,30.07,4.0,North,5.8,-,N/A,,Haze,360,2013-12-14 18:55:00
1:15 PM,20.8,14.0,75,30.06,5.0,North,5.8,-,N/A,,Haze,10,2013-12-14 19:15:00
1:35 PM,20.8,14.0,75,30.05,5.0,NNE,6.9,-,N/A,,Haze,30,2013-12-14 19:35:00
1:55 PM,21.2,14.4,75,30.05,3.0,NNE,5.8,-,N/A,Snow,Light Snow,20,2013-12-14 19:55:00
2:15 PM,21.0,14.4,75,30.04,7.0,NNE,5.8,-,N/A,Snow,Light Snow,20,2013-12-14 20:15:00
2:35 PM,20.8,14.5,77,30.03,4.0,North,4.6,-,N/A,Snow,Light Snow,10,2013-12-14 20:35:00
2:55 PM,20.8,14.5,77,30.02,10.0,North,4.6,-,N/A,,Unknown,360,2013-12-14 20:55:00
3:15 PM,20.7,14.4,77,30.03,10.0,North,5.8,-,N/A,,Unknown,350,2013-12-14 21:15:00
3:35 PM,20.7,14.5,77,30.03,10.0,North,5.8,-,N/A,,Unknown,350,2013-12-14 21:35:00
3:55 PM,20.3,14.5,78,30.02,10.0,North,3.5,-,N/A,Snow,Light Snow,360,2013-12-14 21:55:00
4:15 PM,20.3,14.7,79,30.01,7.0,Calm,Calm,-,N/A,Snow,Light Snow,0,2013-12-14 22:15:00
4:35 PM,19.8,14.5,80,30.01,7.0,North,3.5,-,N/A,Snow,Light Snow,360,2013-12-14 22:35:00
4:55 PM,19.9,14.9,81,30.01,7.0,Calm,Calm,-,N/A,Snow,Light Snow,0,2013-12-14 22:55:00
5:15 PM,19.8,14.9,81,30.01,7.0,Calm,Calm,-,N/A,Snow,Light Snow,0,2013-12-14 23:15:00
5:35 PM,19.8,14.9,81,30.01,5.0,Calm,Calm,-,N/A,Snow,Light Snow,0,2013-12-14 23:35:00
5:55 PM,18.7,14.4,83,29.99,5.0,Calm,Calm,-,N/A,Snow,Light Snow,0,2013-12-14 23:55:00
6:15 PM,17.2,12.9,83,29.99,7.0,Calm,Calm,-,N/A,Snow,Light Snow,0,2013-12-15 00:15:00
6:35 PM,17.8,14.0,85,29.99,10.0,Calm,Calm,-,N/A,,Unknown,0,2013-12-15 00:35:00
6:55 PM,18.3,14.7,86,29.98,10.0,Calm,Calm,-,N/A,Snow,Light Snow,0,2013-12-15 00:55:00
7:15 PM,18.5,14.9,86,29.98,7.0,Calm,Calm,-,N/A,Snow,Light Snow,0,2013-12-15 01:15:00
7:35 PM,18.5,15.3,87,29.97,5.0,Calm,Calm,-,N/A,Snow,Light Snow,0,2013-12-15 01:35:00
7:55 PM,18.5,15.3,87,29.97,5.0,Calm,Calm,-,N/A,Snow,Light Snow,0,2013-12-15 01:55:00
8:15 PM,18.9,15.4,87,29.96,5.0,Calm,Calm,-,N/A,Snow,Light Snow,0,2013-12-15 02:15:00
8:35 PM,18.9,15.4,87,29.95,4.0,Calm,Calm,-,N/A,Snow,Light Snow,0,2013-12-15 02:35:00
8:55 PM,18.9,15.6,87,29.94,3.0,Calm,Calm,-,N/A,Snow,Light Snow,0,2013-12-15 02:55:00
9:15 PM,18.9,15.6,87,29.94,2.5,Calm,Calm,-,N/A,Snow,Light Snow,0,2013-12-15 03:15:00
9:35 PM,18.9,15.6,87,29.93,2.0,SW,3.5,-,N/A,Snow,Light Snow,230,2013-12-15 03:35:00
9:55 PM,18.9,15.6,87,29.93,2.0,Calm,Calm,-,N/A,Snow,Light Snow,0,2013-12-15 03:55:00
10:15 PM,19.0,15.8,87,29.92,3.0,SW,3.5,-,N/A,Snow,Light Snow,230,2013-12-15 04:15:00
10:35 PM,19.0,15.8,87,29.91,2.5,SW,3.5,-,N/A,Snow,Light Snow,220,2013-12-15 04:35:00
10:55 PM,19.0,15.6,87,29.90,4.0,WSW,4.6,-,N/A,Snow,Light Snow,240,2013-12-15 04:55:00
11:15 PM,19.4,15.6,85,29.90,4.0,West,6.9,-,N/A,Snow,Light Snow,270,2013-12-15 05:15:00
11:35 PM,19.0,13.6,79,29.90,4.0,West,15.0,18.4,N/A,Snow,Light Snow,270,2013-12-15 05:35:00
11:55 PM,17.6,10.4,73,29.90,7.0,West,13.8,20.7,N/A,Snow,Light Snow,280,2013-12-15 05:55:00